Latest Weather Observations for Wattamolla

IDN60801

Issued at 3:34 am EDT Saturday 31 January 2015 (issued every 30 minutes, with the page automatically refreshed every 10 minutes)

About weather observations | Map of weather stations | Latest weather observations for NSW | Other Formats
Station Details ID: 066208 Name: WATTAMOLLA AWS Lat: -34.14 Lon: 151.12 Height: 44.0 m
Data from the previous 72 hours. | See also: Recent months for locations in New South Wales
Date/Time
EDT
Temp
°C
App
Temp
°C
Dew
Point
Rel
Hum
%
Delta-T
°C
Wind Press
QNH
hPa
Press
MSL
hPa
Rain
since 9 am
mm
Dir
 
Spd
km/h
Gust
km/h
Spd
kts
Gust
kts
31/03:00am - - - - - WSW 13 17 7 9 - - -
31/02:30am - - - - - WSW 13 17 7 9 - - -
31/02:00am - - - - - W 17 19 9 10 - - -
31/01:30am - - - - - W 15 19 8 10 - - -
31/01:00am - - - - - WNW 11 17 6 9 - - -
31/12:30am - - - - - S 24 37 13 20 - - -
31/12:00am - - - - - S 33 39 18 21 - - -
 
Date/Time
EDT
Temp
°C
App
Temp
°C
Dew
Point
Rel
Hum
%
Delta-T
°C
Wind Press
QNH
hPa
Press
MSL
hPa
Rain
since 9 am
mm
Dir
 
Spd
km/h
Gust
km/h
Spd
kts
Gust
kts
30/11:30pm - - - - - S 41 48 22 26 - - -
30/11:00pm - - - - - S 43 50 23 27 - - -
30/10:30pm - - - - - - - - - - - - -
30/10:00pm - - - - - S 50 56 27 30 - - -
30/09:30pm - - - - - S 50 59 27 32 - - -
30/09:00pm - - - - - S 48 56 26 30 - - -
30/08:30pm - - - - - S 44 52 24 28 - - -
30/08:00pm - - - - - S 41 52 22 28 - - -
30/07:30pm - - - - - S 41 50 22 27 - - -
30/07:00pm - - - - - S 39 46 21 25 - - -
30/06:30pm - - - - - S 33 39 18 21 - - -
30/06:00pm - - - - - S 17 26 9 14 - - -
30/05:30pm - - - - - S 11 15 6 8 - - -
30/05:00pm - - - - - S 13 19 7 10 - - -
30/04:30pm - - - - - SSE 13 17 7 9 - - -
30/04:00pm - - - - - SSE 13 19 7 10 - - -
30/03:30pm - - - - - SSE 19 26 10 14 - - -
30/03:00pm - - - - - SSE 24 32 13 17 - - -
30/02:30pm - - - - - S 20 26 11 14 - - -
30/02:00pm - - - - - S 26 33 14 18 - - -
30/01:30pm - - - - - S 35 39 19 21 - - -
30/01:00pm - - - - - - - - - - - - -
30/12:30pm - - - - - S 44 57 24 31 - - -
30/12:00pm - - - - - S 37 46 20 25 - - -
30/11:30am - - - - - S 37 44 20 24 - - -
30/11:00am - - - - - S 39 46 21 25 - - -
30/10:30am - - - - - S 39 50 21 27 - - -
30/10:00am - - - - - S 39 54 21 29 - - -
30/09:30am - - - - - S 35 50 19 27 - - -
30/09:06am - - - - - S 35 54 19 29 - - -
30/09:00am - - - - - S 33 50 18 27 - - -
30/08:34am - - - - - S 26 46 14 25 - - -
30/08:30am - - - - - SSW 22 46 12 25 - - -
30/08:28am - - - - - SSW 19 43 10 23 - - -
30/08:00am - - - - - W 15 24 8 13 - - -
30/07:30am - - - - - WNW 15 24 8 13 - - -
30/07:00am - - - - - WNW 17 20 9 11 - - -
30/06:30am - - - - - NW 17 20 9 11 - - -
30/06:00am - - - - - NW 15 19 8 10 - - -
30/05:30am - - - - - W 17 20 9 11 - - -
30/05:00am - - - - - W 17 24 9 13 - - -
30/04:30am - - - - - W 19 26 10 14 - - -
30/04:00am - - - - - W 20 28 11 15 - - -
30/03:30am - - - - - W 20 26 11 14 - - -
30/03:00am - - - - - W 22 30 12 16 - - -
30/02:30am - - - - - WNW 17 24 9 13 - - -
30/02:00am - - - - - SSW 20 35 11 19 - - -
30/01:30am - - - - - S 30 50 16 27 - - -
30/01:26am - - - - - S 28 41 15 22 - - -
30/01:14am - - - - - S 50 67 27 36 - - -
30/01:00am - - - - - S 48 69 26 37 - - -
30/12:56am - - - - - S 39 69 21 37 - - -
30/12:31am - - - - - S 28 56 15 30 - - -
30/12:30am - - - - - S 24 52 13 28 - - -
30/12:00am - - - - - S 35 54 19 29 - - -
 
Date/Time
EDT
Temp
°C
App
Temp
°C
Dew
Point
Rel
Hum
%
Delta-T
°C
Wind Press
QNH
hPa
Press
MSL
hPa
Rain
since 9 am
mm
Dir
 
Spd
km/h
Gust
km/h
Spd
kts
Gust
kts
29/11:58pm - - - - - S 41 56 22 30 - - -
29/11:35pm - - - - - S 56 74 30 40 - - -
29/11:30pm - - - - - S 57 70 31 38 - - -
29/11:01pm - - - - - S 48 67 26 36 - - -
29/11:00pm - - - - - S 48 67 26 36 - - -
29/10:30pm - - - - - S 56 65 30 35 - - -
29/10:00pm - - - - - S 57 69 31 37 - - -
29/09:30pm - - - - - S 57 67 31 36 - - -
29/09:02pm - - - - - S 54 72 29 39 - - -
29/09:00pm - - - - - S 56 69 30 37 - - -
29/08:49pm - - - - - S 56 74 30 40 - - -
29/08:30pm - - - - - S 56 67 30 36 - - -
29/08:26pm - - - - - S 57 76 31 41 - - -
29/08:00pm - - - - - S 65 76 35 41 - - -
29/07:30pm - - - - - S 59 70 32 38 - - -
29/07:00pm - - - - - S 63 74 34 40 - - -
29/06:30pm - - - - - S 61 72 33 39 - - -
29/06:00pm - - - - - S 56 69 30 37 - - -
29/05:30pm - - - - - S 50 65 27 35 - - -
29/05:00pm - - - - - S 63 78 34 42 - - -
29/04:46pm - - - - - S 63 82 34 44 - - -
29/04:30pm - - - - - S 57 70 31 38 - - -
29/04:00pm - - - - - S 61 74 33 40 - - -
29/03:30pm - - - - - S 59 70 32 38 - - -
29/03:00pm - - - - - S 56 65 30 35 - - -
29/02:30pm - - - - - S 56 74 30 40 - - -
29/02:00pm - - - - - S 69 82 37 44 - - -
29/01:46pm - - - - - S 65 78 35 42 - - -
29/01:30pm - - - - - S 52 67 28 36 - - -
29/01:00pm - - - - - S 50 57 27 31 - - -
29/12:30pm - - - - - S 48 57 26 31 - - -
29/12:00pm - - - - - S 50 57 27 31 - - -
29/11:30am - - - - - S 57 67 31 36 - - -
29/11:00am - - - - - S 48 59 26 32 - - -
29/10:30am - - - - - S 57 67 31 36 - - -
29/10:00am - - - - - S 54 63 29 34 - - -
29/09:30am - - - - - S 57 67 31 36 - - -
29/09:05am - - - - - S 56 74 30 40 - - -
29/09:00am - - - - - S 57 74 31 40 - - -
29/08:30am - - - - - S 56 74 30 40 - - -
29/08:00am - - - - - S 46 69 25 37 - - -
29/07:34am - - - - - S 52 70 28 38 - - -
29/07:30am - - - - - S 57 70 31 38 - - -
29/07:12am - - - - - S 57 76 31 41 - - -
29/07:00am - - - - - S 61 72 33 39 - - -
29/06:30am - - - - - S 69 83 37 45 - - -
29/06:00am - - - - - S 59 80 32 43 - - -
29/05:52am - - - - - S 57 80 31 43 - - -
29/05:46am - - - - - S 61 80 33 43 - - -
29/05:42am - - - - - S 59 80 32 43 - - -
29/05:30am - - - - - S 50 69 27 37 - - -
29/05:00am - - - - - S 52 72 28 39 - - -
29/04:30am - - - - - S 43 61 23 33 - - -
29/04:04am - - - - - S 50 76 27 41 - - -
29/04:00am - - - - - S 61 76 33 41 - - -
29/03:32am - - - - - S 57 76 31 41 - - -
29/03:30am - - - - - S 59 76 32 41 - - -
29/03:13am - - - - - S 56 74 30 40 - - -
29/03:00am - - - - - S 57 70 31 38 - - -
29/02:30am - - - - - S 59 80 32 43 - - -
29/02:23am - - - - - S 50 72 27 39 - - -
29/02:00am - - - - - S 39 59 21 32 - - -
29/01:39am - - - - - S 52 70 28 38 - - -
29/01:30am - - - - - S 57 72 31 39 - - -
29/01:00am - - - - - S 59 70 32 38 - - -
29/12:53am - - - - - S 52 70 28 38 - - -
29/12:32am - - - - - S 41 59 22 32 - - -
29/12:30am - - - - - S 43 59 23 32 - - -
29/12:00am - - - - - S 52 67 28 36 - - -
 
Date/Time
EDT
Temp
°C
App
Temp
°C
Dew
Point
Rel
Hum
%
Delta-T
°C
Wind Press
QNH
hPa
Press
MSL
hPa
Rain
since 9 am
mm
Dir
 
Spd
km/h
Gust
km/h
Spd
kts
Gust
kts
28/11:30pm - - - - - S 50 63 27 34 - - -
28/11:00pm - - - - - S 56 65 30 35 - - -
28/10:30pm - - - - - S 61 74 33 40 - - -
28/10:00pm - - - - - S 57 69 31 37 - - -
28/09:30pm - - - - - S 54 65 29 35 - - -
28/09:00pm - - - - - S 46 63 25 34 - - -
28/08:30pm - - - - - S 46 59 25 32 - - -
28/08:27pm - - - - - S 44 59 24 32 - - -
28/08:25pm - - - - - S 44 57 24 31 - - -
28/08:00pm - - - - - S 57 67 31 36 - - -
28/07:46pm - - - - - S 52 70 28 38 - - -
28/07:30pm - - - - - S 48 56 26 30 - - -
28/07:11pm - - - - - S 39 61 21 33 - - -
28/07:00pm - - - - - S 28 43 15 23 - - -
28/06:30pm - - - - - S 50 57 27 31 - - -
28/06:00pm - - - - - S 48 57 26 31 - - -
28/05:30pm - - - - - S 43 52 23 28 - - -
28/05:00pm - - - - - SSE 48 59 26 32 - - -
28/04:47pm - - - - - S 32 50 17 27 - - -
28/04:30pm - - - - - S 43 69 23 37 - - -
28/04:27pm - - - - - S 50 69 27 37 - - -
28/04:17pm - - - - - S 46 63 25 34 - - -
28/04:13pm - - - - - S 39 57 21 31 - - -
28/04:00pm - - - - - S 41 52 22 28 - - -
28/03:30pm - - - - - S 46 56 25 30 - - -
28/03:00pm - - - - - S 50 61 27 33 - - -
28/02:44pm - - - - - S 28 59 15 32 - - -
28/02:30pm - - - - - S 22 37 12 20 - - -
28/02:00pm - - - - - S 43 57 23 31 - - -
28/01:53pm - - - - - S 52 80 28 43 - - -
28/01:49pm - - - - - S 52 80 28 43 - - -
28/01:47pm - - - - - S 46 80 25 43 - - -
28/01:45pm - - - - - S 39 74 21 40 - - -
28/01:40pm - - - - - S 28 52 15 28 - - -
28/01:30pm - - - - - S 32 43 17 23 - - -
28/01:16pm - - - - - S 52 67 28 36 - - -
28/01:09pm - - - - - S 54 67 29 36 - - -
28/01:02pm - - - - - S 39 57 21 31 - - -
28/01:00pm - - - - - S 37 50 20 27 - - -
28/12:30pm - - - - - S 48 61 26 33 - - -
28/12:18pm - - - - - S 28 50 15 27 - - -
28/12:00pm - - - - - SSE 32 41 17 22 - - -
28/11:51am - - - - - SSE 32 50 17 27 - - -
28/11:30am - - - - - S 35 48 19 26 - - -
28/11:18am - - - - - SSE 41 74 22 40 - - -
28/11:16am - - - - - SSE 48 74 26 40 - - -
28/11:12am - - - - - S 52 74 28 40 - - -
28/11:06am - - - - - SSE 41 70 22 38 - - -
28/11:00am - - - - - SSE 37 56 20 30 - - -
28/10:59am - - - - - SSE 37 56 20 30 - - -
28/10:30am - - - - - SSE 39 52 21 28 - - -
28/10:00am - - - - - SSE 46 61 25 33 - - -
28/09:30am - - - - - S 46 59 25 32 - - -
28/09:00am - - - - - S 43 54 23 29 - - -
28/08:32am - - - - - SSE 30 52 16 28 - - -
28/08:30am - - - - - SSE 30 39 16 21 - - -
28/08:00am - - - - - S 30 39 16 21 - - -
28/07:30am - - - - - SSE 43 54 23 29 - - -
28/07:03am - - - - - S 32 57 17 31 - - -
28/07:00am - - - - - SSE 33 41 18 22 - - -
28/06:35am - - - - - S 46 65 25 35 - - -
28/06:30am - - - - - S 54 67 29 36 - - -
28/06:00am - - - - - S 61 76 33 41 - - -
28/05:30am - - - - - S 50 67 27 36 - - -
28/05:28am - - - - - S 46 67 25 36 - - -
28/05:10am - - - - - S 35 56 19 30 - - -
28/05:00am - - - - - S 35 50 19 27 - - -
28/04:55am - - - - - S 35 50 19 27 - - -
28/04:30am - - - - - S 19 28 10 15 - - -
28/04:00am - - - - - SSE 20 30 11 16 - - -

Other Formats:

Comma delimited format used in spreadsheet applications
http://www.bom.gov.au/fwo/IDN60801/IDN60801.95752.axf

JavaScript Object Notation format (JSON) in row-major order
http://www.bom.gov.au/fwo/IDN60801/IDN60801.95752.json